This demonstration page uses our WeatherBlox Daily Observations layout. Learn more.

Left ArrowRight Arrow

Hourly Observations for September 6, 2015

Temp ( °F °C ) Dew Point ( °F °C ) Humidity (%) Winds ( mph kmh ) Pressure ( in mb ) Visibility ( mi km ) Precip ( " mm )
12:15 am 00:15 Clear 70 21 68 20 94 94 Calm 30.24 1024 10 16 0.00 0.00
12:35 am 00:35 Clear 68 20 68 20 100 100 Calm 30.24 1024 10 16 0.00 0.00
12:55 am 00:55 Clear 70 21 68 20 94 94 Calm 30.24 1024 10 16 0.00 0.00
1:15 am 01:15 Clear 70 21 68 20 94 94 Calm 30.24 1024 10 16 0.00 0.00
1:35 am 01:35 Clear 68 20 68 20 100 100 Calm 30.24 1024 10 16 0.00 0.00
1:55 am 01:55 Clear 68 20 68 20 100 100 Calm 30.24 1024 10 16 0.00 0.00
2:15 am 02:15 Clear 68 20 68 20 100 100 Calm 30.21 1023 10 16 0.00 0.00
2:35 am 02:35 Clear 68 20 68 20 100 100 Calm 30.21 1023 10 16 0.00 0.00
2:55 am 02:55 Clear 70 21 68 20 94 94 Calm 30.21 1023 10 16 0.00 0.00
3:15 am 03:15 Clear 70 21 68 20 94 94 Calm 30.21 1023 10 16 0.00 0.00
3:35 am 03:35 Clear 68 20 68 20 100 100 Calm 30.21 1023 10 16 0.00 0.00
3:55 am 03:55 Clear 66 19 66 19 100 100 Calm 30.21 1023 10 16 0.00 0.00
4:15 am 04:15 Clear 66 19 66 19 100 100 Calm 30.21 1023 10 16 0.00 0.00
4:35 am 04:35 Clear 64 18 64 18 100 100 Calm 30.24 1024 10 16 0.00 0.00
4:55 am 04:55 Clear 66 19 66 19 100 100 Calm 30.24 1024 7 11 0.00 0.00
5:15 am 05:15 Clear 64 18 64 18 100 100 Calm 30.21 1023 7 11 0.00 0.00
5:35 am 05:35 Clear 64 18 64 18 100 100 Calm 30.24 1024 7 11 0.00 0.00
5:55 am 05:55 Clear 64 18 64 18 100 100 Calm 30.24 1024 10 16 0.00 0.00
6:15 am 06:15 Clear 64 18 64 18 100 100 Calm 30.24 1024 10 16 0.00 0.00
6:35 am 06:35 Clear with Mist and Fog 64 18 64 18 100 100 Calm 30.24 1024 5 8 0.00 0.00
6:55 am 06:55 Sunny with Mist and Fog 63 17 63 17 100 100 Calm 30.24 1024 5 8 0.00 0.00
7:15 am 07:15 Sunny 63 17 63 17 100 100 Calm 30.24 1024 10 16 0.00 0.00
7:35 am 07:35 Sunny 64 18 64 18 100 100 Calm 30.24 1024 7 11 0.00 0.00
7:55 am 07:55 Sunny 66 19 66 19 100 100 Calm 30.24 1024 7 11 0.00 0.00
8:15 am 08:15 Sunny 68 20 68 20 100 100 Calm 30.24 1024 10 16 0.00 0.00
8:35 am 08:35 Sunny 70 21 68 20 94 94 Calm 30.24 1024 10 16 0.00 0.00
8:55 am 08:55 Sunny 72 22 68 20 88 88 Calm 30.24 1024 10 16 0.00 0.00
9:15 am 09:15 Sunny 72 22 66 19 83 83 Calm 30.24 1024 10 16 0.00 0.00
9:35 am 09:35 Sunny 73 23 66 19 78 78 Calm 30.24 1024 10 16 0.00 0.00
9:55 am 09:55 Sunny 75 24 66 19 74 74 S 5 7 30.24 1024 10 16 0.00 0.00
10:15 am 10:15 Sunny 75 24 64 18 69 69 SSW 5 7 30.24 1024 10 16 0.00 0.00
10:35 am 10:35 Sunny 77 25 64 18 65 65 S 6 9 30.24 1024 10 16 0.00 0.00
10:55 am 10:55 Sunny 77 25 64 18 65 65 S 5 7 30.24 1024 10 16 0.00 0.00
11:15 am 11:15 Sunny 79 26 64 18 61 61 Calm 30.24 1024 10 16 0.00 0.00
11:35 am 11:35 Sunny 79 26 66 19 65 65 WSW 3 6 30.24 1024 10 16 0.00 0.00
11:55 am 11:55 Sunny 81 27 66 19 62 62 NE 7 11 30.24 1024 10 16 0.00 0.00
12:15 pm 12:15 Sunny 81 27 66 19 62 62 S 7 11 30.24 1024 10 16 0.00 0.00
12:35 pm 12:35 Sunny 81 27 66 19 62 62 W 3 6 30.24 1024 10 16 0.00 0.00
12:55 pm 12:55 Sunny 82 28 64 18 55 55 Calm 30.24 1024 10 16 0.00 0.00
1:15 pm 13:15 Sunny 84 29 63 17 48 48 S 9 15 30.21 1023 10 16 0.00 0.00
1:35 pm 13:35 Sunny 84 29 61 16 45 45 SSW 12 19 30.21 1023 10 16 0.00 0.00
1:55 pm 13:55 Sunny 86 30 61 16 43 43 S 12 19 30.21 1023 10 16 0.00 0.00
2:15 pm 14:15 Sunny 86 30 63 17 46 46 SE 7 11 30.21 1023 10 16 0.00 0.00
2:35 pm 14:35 Sunny 86 30 61 16 43 43 SSW 12 19 30.21 1023 10 16 0.00 0.00
2:55 pm 14:55 Partly Cloudy 86 30 61 16 43 43 SE 3 6 30.21 1023 10 16 0.00 0.00
3:15 pm 15:15 Sunny 86 30 61 16 43 43 SE 7 11 30.18 1022 10 16 0.00 0.00
3:35 pm 15:35 Sunny 86 30 61 16 43 43 SSE 5 7 30.18 1022 10 16 0.00 0.00
3:55 pm 15:55 Sunny 86 30 59 15 40 40 SSW 8 13 30.18 1022 10 16 0.00 0.00
4:15 pm 16:15 Sunny 86 30 59 15 40 40 ESE 5 7 30.18 1022 10 16 0.00 0.00
4:35 pm 16:35 Sunny 86 30 57 14 38 38 SSE 7 11 30.18 1022 10 16 0.00 0.00
4:55 pm 16:55 Sunny 86 30 55 13 35 35 SE 7 11 30.18 1022 10 16 0.00 0.00
5:15 pm 17:15 Sunny 86 30 55 13 35 35 S 12 19 30.15 1021 10 16 0.00 0.00
5:35 pm 17:35 Sunny 86 30 55 13 35 35 ESE 3 6 30.15 1021 10 16 0.00 0.00
5:55 pm 17:55 Sunny 86 30 55 13 35 35 SE 6 9 30.15 1021 10 16 0.00 0.00
6:15 pm 18:15 Sunny 86 30 55 13 35 35 SE 6 9 30.15 1021 10 16 0.00 0.00
6:35 pm 18:35 Sunny 86 30 55 13 35 35 SSE 3 6 30.15 1021 10 16 0.00 0.00
6:55 pm 18:55 Sunny 84 29 54 12 35 35 SE 3 6 30.15 1021 10 16 0.00 0.00
7:15 pm 19:15 Sunny 82 28 55 13 40 40 SE 3 6 30.15 1021 10 16 0.00 0.00
7:35 pm 19:35 Clear 82 28 55 13 40 40 SSE 6 9 30.15 1021 10 16 0.00 0.00
7:55 pm 19:55 Clear 82 28 54 12 37 37 S 6 9 30.15 1021 10 16 0.00 0.00
8:15 pm 20:15 Clear 81 27 54 12 39 39 SSE 6 9 30.15 1021 10 16 0.00 0.00
8:35 pm 20:35 Clear 79 26 54 12 42 42 SSE 7 11 30.15 1021 10 16 0.00 0.00
8:55 pm 20:55 Clear 73 23 59 15 61 61 SSW 5 7 30.15 1021 10 16 0.00 0.00
9:15 pm 21:15 Clear 73 23 59 15 61 61 SSW 5 7 30.15 1021 10 16 0.00 0.00
9:35 pm 21:35 Clear 70 21 61 16 73 73 SW 3 6 30.18 1022 10 16 0.00 0.00
9:55 pm 21:55 Clear 70 21 61 16 73 73 SW 5 7 30.18 1022 10 16 0.00 0.00
10:15 pm 22:15 Clear 68 20 63 17 83 83 SW 5 7 30.18 1022 10 16 0.00 0.00
10:35 pm 22:35 Clear 68 20 63 17 83 83 SSW 5 7 30.15 1021 10 16 0.00 0.00
10:55 pm 22:55 Clear 70 21 61 16 73 73 SSW 5 7 30.15 1021 10 16 0.00 0.00
11:15 pm 23:15 Clear 70 21 61 16 73 73 SSW 3 6 30.15 1021 10 16 0.00 0.00
11:35 pm 23:35 Clear 68 20 63 17 83 83 Calm 30.15 1021 10 16 0.00 0.00
11:55 pm 23:55 Clear 64 18 63 17 94 94 Calm 30.15 1021 10 16 0.00 0.00

Powered by AerisWeather